Regional Weather Roundup
Issued by NWS

Home | Current Version | Previous Version | Graphics & Text | Print | Product List | Glossary On
Versions: 1 2 3 4 5 6 7 8 9 10 11 12 13 14 15 16 17 18 19 20 21 22 23 24 25 26 27 28 29 30 31 32 33 34 35 36 37 38 39 40 41 42 43 44 45 46 47 48 49 50
000
ASUS43 KLOT 271804
RWRIL

ILLINOIS REGIONAL WEATHER ROUNDUP
NATIONAL WEATHER SERVICE CHICAGO/ROMEOVILLE IL
100 PM CDT FRI MAY 27 2016

NOTE: "FAIR" INDICATES FEW OR NO CLOUDS BELOW 12,000 FEET WITH NO
SIGNIFICANT WEATHER AND/OR OBSTRUCTIONS TO VISIBILITY.

* THESE STATIONS ARE NOT UNDER NWS QUALITY CONTROL. THEY ALSO MAY NOT
  REPORT WEATHER SUCH AS PRECIPITATION OR FOG.

ILZ001-002-007-009-015-016-024-271900-
NORTHWEST ILLINOIS

CITY           SKY/WX    TMP DP  RH WIND       PRES   REMARKS
MOLINE         CLOUDY    76  66  71 S12       29.80F
6HR MIN TEMP:  66; 6HR MAX TEMP:  77; 6HR PCP: TRACE;

STERLING*      CLOUDY    79  65  62 SE10G22   29.82F HX  81
$$

ILZ003-004-008-010-011-017-018-271900-
NORTH CENTRAL ILLINOIS

CITY           SKY/WX    TMP DP  RH WIND       PRES   REMARKS
ROCKFORD       CLOUDY    79  64  60 SE16      29.85F HX  81
6HR MIN TEMP:  69; 6HR MAX TEMP:  82; 6HR PCP: TRACE;

FREEPORT*      CLOUDY    79  65  61 SE21      29.84F HX  81
$$

ILZ005-006-012>014-019>023-271900-
NORTHEAST ILLINOIS

CITY           SKY/WX    TMP DP  RH WIND       PRES   REMARKS
CHICAGO-OHARE  PTSUNNY   80  65  59 S9        29.87F HX  82
6HR MIN TEMP:  68; 6HR MAX TEMP:  80; 6HR PCP:  0.02;

CHICAGO-MIDWAY PTSUNNY   83  62  49 S13G26    29.87F HX  84
6HR MIN TEMP:  70; 6HR MAX TEMP:  83;

AURORA         CLOUDY    82  66  58 S16       29.86F HX  84
6HR MIN TEMP:  69; 6HR MAX TEMP:  82; 6HR PCP: TRACE;

LANSING*       CLOUDY    80  63  56 S14G22    29.90F HX  81
WAUKEGAN       LGT RAIN  74  67  78 SE10      29.88F
6HR MIN TEMP:  70; 6HR MAX TEMP:  76; 6HR PCP: TRACE;

DUPAGE AIRPORT PTSUNNY   80  65  59 S13G25    29.86F HX  82
6HR MIN TEMP:  68; 6HR MAX TEMP:  80; 6HR PCP:  0.05;

WHEELING       MOSUNNY   80  65  59 S15G21    29.88F HX  82
6HR MIN TEMP:  69; 6HR MAX TEMP:  80; 6HR PCP:  0.05;

NORTHERLY ISL    N/A     78  63  59 S16         N/A  HX  80
NORTHERLY ISL    N/A     78  63  59 S16         N/A  HX  80
$$

LMZ740>746-271900-
SOUTHERN LAKE MICHIGAN

STATION/POSITION SKY/WX   TEMP    WIND        PRES    VSBY  WAVE
                          AIR SEA DIR/SP/G                  HT/PER
                          (F)     (DEG/KT/KT) (MB)    (MI)  (FT/S)
SOUTHERN BUOY              54 50  140/ 10/ 12 1013.1          1/ 3
WILMETTE HARBOR            62 58  150/  8/ 10   N/A           1
HARRISON CRIB              73     160/ 12/ 13   N/A
BURNHAM HARBOR             72     110/  5/ 14   N/A
CALUMET HARBOR             78     180/  9/ 15 1012.2F
BURNS HARBOR               77     200/ 11/ 17 1013.5F
MICHIGAN CITY              76     170/ 12/ 15   N/A
MICHIGAN CITY 6N           68 59  220/  6/ 10   N/A           1
ST. JOSEPH                 67 62  170/  4/  6   N/A           1/ 2
$$

ILZ025>027-034>036-040-047-049-050-058-095>099-271900-
WEST-CENTRAL ILLINOIS

CITY           SKY/WX    TMP DP  RH WIND       PRES   REMARKS
QUINCY         CLOUDY    74  67  78 S14G22    29.79F
MACOMB*        CLOUDY    71  67  88 S16       29.83S
PITTSFIELD*    PTSUNNY   76  70  83 S14G26    29.81F
$$

ILZ028>032-037-038-041>044-048-051>054-059>061-271900-
CENTRAL ILLINOIS

CITY           SKY/WX    TMP DP  RH WIND       PRES   REMARKS
BLOOMINGTON    PTSUNNY   75  68  79 S24G30    29.88F
DECATUR        CLOUDY    78  67  68 S15G28    29.87F HX  80
PEORIA         CLOUDY    75  65  70 S18       29.84S
6HR MIN TEMP:  69; 6HR MAX TEMP:  77;

SPRINGFIELD    PTSUNNY   77  68  73 S17G23    29.84F
6HR MIN TEMP:  69; 6HR MAX TEMP:  78; 6HR PCP: TRACE;

TAYLORVILLE    NOT AVBL
$$

ILZ033-039-045-046-055>057-062-063-271900-
EAST-CENTRAL ILLINOIS

CITY           SKY/WX    TMP DP  RH WIND       PRES   REMARKS
CHAMPAIGN      CLOUDY    78  63  59 S21       29.90F HX  80
MATTOON        CLOUDY    76  64  66 S13G23    29.89F
$$

ILZ079-100>102-271900-
SOUTHWEST ILLINOIS

CITY           SKY/WX    TMP DP  RH WIND       PRES   REMARKS
ALTON          CLOUDY    73  68  83 S13       29.86S
BELLEVILLE     CLOUDY    75  74  96 SE13G20   29.86S
CAHOKIA*       CLOUDY    75  68  78 S9        29.85F
SPARTA*        CLOUDY    72  69  92 SE12G18   29.89S
$$

ILZ064>066-069>071-074>076-080>082-084>086-088>090-092>094-271900-
SOUTH-CENTRAL ILLINOIS

CITY           SKY/WX    TMP DP  RH WIND       PRES   REMARKS
CARBONDALE     CLOUDY    76  70  82 S10       29.90F
6HR MIN TEMP:  66; 6HR MAX TEMP:  76; 6HR PCP:  0.31;

MARION         PTSUNNY   79  73  83 S12G23    29.92F HX  82
MT. VERNON     CLOUDY    75  68  78 S10       29.92F
SALEM*         CLOUDY    73  69  86 SE14      29.90S
$$

ILZ067-068-072-073-078-083-087-091-271900-
SOUTHEAST ILLINOIS

CITY           SKY/WX    TMP DP  RH WIND       PRES   REMARKS
LAWRENCEVILLE  CLOUDY    82  70  66 S15       29.94F HX  86
FLORA*         PTSUNNY   78  70  76 S15       29.92F HX  80
HARRISBURG*    CLOUDY    80  72  77 S12G23    29.93F HX  83
ROBINSON*      PTSUNNY   79  70  73 S12       29.94F HX  82
$$

ABBREVIATIONS USED IN REMARKS
   TC - TEMPERATURE IN CELSIUS
  WCI - WIND CHILL INDEX
   HX - HEAT INDEX
  VSB - VISIBILITY
$$





USA.gov is the U.S. government's official web portal to all federal, state and local government web resources and services.